Location: Liscomb Game Sanctuary
(45.1633°N, 62.5575°W)
Time: 23:40:05

Cosmos 1420 Rocket - Pass Details

Date: 22 February 2018
Orbit: 754 x 782 km, 74.0° (Epoch: 23 March)

Event Time Altitude Azimuth Distance (km) Brightness Sun altitude
Rises 18:41:58 0° 338° (NNW) 3,253 7.5 -10.2°
Reaches altitude 10° 18:44:21 10° 339° (NNW) 2,327 6.7 -10.7°
Maximum altitude 18:49:40 86° 70° (ENE) 784 4.0 -11.6°
Drops below altitude 10° 18:54:58 10° 159° (SSE) 2,325 6.3 -12.5°
Sets 18:57:20 0° 160° (SSE) 3,251 7.1 -12.9°
